Colby, KS

11:24 AM CST on November 13, 2019 (GMT -0600)
Shaltz

Weather History for KCBK - September, 2019

Change the Weather History Date:

Saturday, September 14, 2019

  Actual Average (KGLD) Record (KGLD)
Temperature  
Mean Temperature 74 °F -  
Max Temperature 87 °F 74 °F 101 °F (1895)
Min Temperature 60 °F 49 °F 31 °F (1993)
Cooling Degree Days 8    
Growing Degree Days 24 (Base 50)    
Moisture  
Dew Point 57 °F    
Average Humidity 64    
Maximum Humidity 100    
Minimum Humidity 27    
Precipitation  
Precipitation 0.00 in - - ()
Sea Level Pressure  
Sea Level Pressure 30.10 in    
Wind  
Wind Speed 10 mph (SSE)    
Max Wind Speed 18 mph    
Max Gust Speed 24 mph    
Visibility 10 miles    
Events      
Averages and records for this station are not official NWS values.
T = Trace of Precipitation, MM = Missing Value Source: NWS Daily Summary

Daily Weather History Graph

Daily Weather History Graph

Search for Another Location

Airport or City:

Astronomy

Sep. 14, 2019 Rise Set
Actual Time 7:24 AM CDT 7:54 PM CDT
Civil Twilight 6:57 AM CDT 8:21 PM CDT
Nautical Twilight 6:25 AM CDT 8:53 PM CDT
Astronomical Twilight 5:52 AM CDT 9:25 PM CDT
Moon 8:36 PM CDT (9/14) 7:39 AM CDT (9/14)
Length of Visible Light 13h 24m
Length of Day
12h 30m
Full, 100% of the Moon is Illuminated
Sep 14
Full
Sep 21
Last Quarter
Sep 28
New
Oct 5
First Quarter
Oct 13
Full

Hourly Weather History & Observations

Time (CDT) Temp. Heat Index Dew Point Humidity Pressure Visibility Wind Dir Wind Speed Gust Speed Precip Events Conditions
12:15 AM 64.4 °F - 50.0 °F 59% 30.16 in 10.0 mi SSE 16.1 mph 20.7 mph N/A   Clear
12:35 AM 64.4 °F - 51.8 °F 64% 30.16 in 10.0 mi SSE 18.4 mph 24.2 mph N/A   Clear
12:55 AM 64.4 °F - 51.8 °F 64% 30.15 in 10.0 mi SSE 16.1 mph 23.0 mph N/A   Clear
1:15 AM 64.4 °F - 51.8 °F 64% 30.15 in 10.0 mi SSE 13.8 mph 20.7 mph N/A   Clear
1:35 AM 64.4 °F - 53.6 °F 68% 30.15 in 10.0 mi South 12.7 mph - N/A   Clear
1:55 AM 62.6 °F - 53.6 °F 72% 30.15 in 10.0 mi South 11.5 mph - N/A   Clear
2:15 AM 62.6 °F - 55.4 °F 77% 30.14 in 10.0 mi South 11.5 mph 18.4 mph N/A   Clear
2:35 AM 62.6 °F - 55.4 °F 77% 30.14 in 10.0 mi South 11.5 mph 18.4 mph N/A   Clear
2:55 AM 62.6 °F - 57.2 °F 82% 30.14 in 10.0 mi South 12.7 mph 19.6 mph N/A   Clear
3:15 AM 62.6 °F - 59.0 °F 88% 30.13 in 10.0 mi South 12.7 mph 18.4 mph N/A   Clear
3:35 AM 64.4 °F - 59.0 °F 83% 30.13 in 10.0 mi South 12.7 mph 17.3 mph N/A   Clear
3:55 AM 64.4 °F - 60.8 °F 88% 30.12 in 10.0 mi South 11.5 mph 17.3 mph N/A   Clear
4:15 AM 62.6 °F - 60.8 °F 94% 30.12 in 10.0 mi South 12.7 mph 17.3 mph N/A   Clear
4:35 AM 62.6 °F - 60.8 °F 94% 30.12 in 10.0 mi South 11.5 mph - N/A   Clear
4:55 AM 62.6 °F - 60.8 °F 94% 30.11 in 10.0 mi South 9.2 mph - N/A   Clear
5:15 AM 62.6 °F - 60.8 °F 94% 30.11 in 10.0 mi South 9.2 mph - N/A   Clear
5:35 AM 62.6 °F - 60.8 °F 94% 30.11 in 10.0 mi South 8.1 mph 16.1 mph N/A   Clear
5:55 AM 62.6 °F - 60.8 °F 94% 30.10 in 10.0 mi South 8.1 mph - N/A   Clear
6:15 AM 62.6 °F - 60.8 °F 94% 30.10 in 10.0 mi South 10.4 mph - N/A   Clear
6:35 AM 62.6 °F - 60.8 °F 94% 30.10 in 10.0 mi South 9.2 mph - N/A   Clear
6:55 AM 62.6 °F - 60.8 °F 94% 30.11 in 10.0 mi SSW 6.9 mph - N/A   Clear
7:15 AM 60.8 °F - 60.8 °F 100% 30.11 in 10.0 mi SSW 8.1 mph - N/A   Clear
7:35 AM 60.8 °F - 60.8 °F 100% 30.11 in 10.0 mi SSW 6.9 mph - N/A   Clear
7:55 AM 62.6 °F - 62.6 °F 100% 30.11 in 10.0 mi SSW 6.9 mph - N/A   Clear
8:15 AM 62.6 °F - 60.8 °F 94% 30.11 in 10.0 mi SSW 8.1 mph - N/A   Clear
8:35 AM 64.4 °F - 60.8 °F 88% 30.12 in 10.0 mi SW 5.8 mph - N/A   Clear
8:55 AM 66.2 °F - 60.8 °F 83% 30.12 in 10.0 mi SW 8.1 mph - N/A   Clear
9:15 AM 68.0 °F - 60.8 °F 78% 30.12 in 10.0 mi SW 9.2 mph - N/A   Clear
9:55 AM 69.8 °F - 59.0 °F 68% 30.12 in 10.0 mi WSW 10.4 mph - N/A   Clear
10:15 AM 71.6 °F - 59.0 °F 64% 30.12 in 10.0 mi WSW 9.2 mph - N/A   Clear
10:55 AM 73.4 °F - 59.0 °F 61% 30.12 in 10.0 mi SW 5.8 mph - N/A   Clear
11:15 AM 73.4 °F - 59.0 °F 61% 30.12 in 10.0 mi WSW 6.9 mph - N/A   Clear
11:35 AM 75.2 °F - 59.0 °F 57% 30.12 in 10.0 mi SW 5.8 mph - N/A   Clear
11:55 AM 77.0 °F - 59.0 °F 54% 30.11 in 10.0 mi SW 5.8 mph - N/A   Clear
12:15 PM 78.8 °F - 59.0 °F 51% 30.10 in 10.0 mi WSW 5.8 mph - N/A   Clear
12:35 PM 80.6 °F 80.8 °F 57.2 °F 45% 30.10 in 10.0 mi WNW 5.8 mph - N/A   Clear
12:55 PM 80.6 °F 80.5 °F 55.4 °F 42% 30.10 in 10.0 mi Calm Calm - N/A   Clear
1:15 PM 82.4 °F 81.7 °F 55.4 °F 39% 30.10 in 10.0 mi Calm Calm - N/A   Clear
1:35 PM 82.4 °F 81.7 °F 55.4 °F 39% 30.09 in 10.0 mi Calm Calm - N/A   Clear
1:55 PM 84.2 °F 83.5 °F 57.2 °F 40% 30.09 in 10.0 mi West 3.5 mph - N/A   Clear
2:15 PM 84.2 °F 83.5 °F 57.2 °F 40% 30.09 in 5.0 mi Calm Calm - N/A   Clear
2:35 PM 86.0 °F 84.5 °F 55.4 °F 35% 30.08 in 7.0 mi North 4.6 mph - N/A   Clear
3:15 PM 86.0 °F 84.2 °F 53.6 °F 33% 30.07 in 10.0 mi NNW 4.6 mph - N/A   Clear
3:35 PM 87.8 °F 86.1 °F 55.4 °F 33% 30.06 in 10.0 mi North 4.6 mph - N/A   Clear
4:15 PM 87.8 °F 85.7 °F 53.6 °F 31% 30.05 in 10.0 mi North 3.5 mph - N/A   Clear
4:35 PM 87.8 °F 86.1 °F 55.4 °F 33% 30.06 in 10.0 mi ENE 4.6 mph - N/A   Clear
4:55 PM 87.8 °F 86.1 °F 55.4 °F 33% 30.05 in 10.0 mi ENE 5.8 mph - N/A   Clear
5:15 PM 87.8 °F - 51.8 °F 29% 30.05 in 10.0 mi ENE 4.6 mph - N/A   Clear
5:35 PM 87.8 °F - 51.8 °F 29% 30.06 in 10.0 mi North 6.9 mph - N/A   Clear
5:55 PM 87.8 °F - 50.0 °F 27% 30.06 in 10.0 mi North 3.5 mph - N/A   Clear
6:15 PM 86.0 °F - 51.8 °F 31% 30.06 in 10.0 mi ENE 4.6 mph - N/A   Clear
6:35 PM 86.0 °F - 50.0 °F 29% 30.07 in 10.0 mi Calm Calm - N/A   Clear
6:55 PM 84.2 °F 82.8 °F 53.6 °F 35% 30.07 in 10.0 mi ENE 3.5 mph - N/A   Clear
7:15 PM 82.4 °F 81.7 °F 55.4 °F 39% 30.07 in 10.0 mi ENE 3.5 mph - N/A   Clear
7:35 PM 78.8 °F - 57.2 °F 47% 30.07 in 10.0 mi ENE 3.5 mph - N/A   Clear
8:15 PM 75.2 °F - 53.6 °F 47% 30.07 in 10.0 mi ENE 4.6 mph - N/A   Clear
8:35 PM 73.4 °F - 53.6 °F 50% 30.07 in 10.0 mi East 4.6 mph - N/A   Clear
8:55 PM 69.8 °F - 53.6 °F 56% 30.08 in 10.0 mi ENE 4.6 mph - N/A   Clear
9:15 PM 71.6 °F - 53.6 °F 53% 30.08 in 10.0 mi East 8.1 mph - N/A   Clear
9:35 PM 68.0 °F - 55.4 °F 64% 30.08 in 10.0 mi ENE 6.9 mph - N/A   Clear
9:55 PM 64.4 °F - 55.4 °F 73% 30.09 in 10.0 mi ENE 3.5 mph - N/A   Clear
10:15 PM 68.0 °F - 53.6 °F 60% 30.09 in 10.0 mi East 6.9 mph - N/A   Clear
10:35 PM 64.4 °F - 53.6 °F 68% 30.09 in 10.0 mi SSE 4.6 mph - N/A   Clear
10:55 PM 64.4 °F - 53.6 °F 68% 30.09 in 10.0 mi SE 4.6 mph - N/A   Clear
11:15 PM 62.6 °F - 53.6 °F 72% 30.10 in 10.0 mi SSE 8.1 mph - N/A   Clear
11:35 PM 66.2 °F - 59.0 °F 78% 30.09 in 10.0 mi SSE 5.8 mph - N/A   Clear
11:55 PM 66.2 °F - 57.2 °F 73% 30.09 in 10.0 mi Calm Calm - N/A   Clear